Weather History for KMLB - October, 2012

Change the Weather History Date:

Wednesday, October 10, 2012

  Actual Average Record
Temperature  
Mean Temperature 78 °F 78 °F  
Max Temperature 85 °F 85 °F 95 °F (1941)
Min Temperature 71 °F 70 °F 53 °F (1972)
Degree Days  
Heating Degree Days 0 0  
Month to date heating degree days 0 0  
Since 1 July heating degree days 0 0  
Cooling Degree Days 13 12  
Month to date cooling degree days 155 133  
Year to date cooling degree days 3129 2825  
Growing Degree Days 28 (Base 50)    
Moisture  
Dew Point 70 °F    
Average Humidity 81    
Maximum Humidity 100    
Minimum Humidity 62    
Precipitation  
Precipitation 0.00 in 0.18 in 1.39 in (1989)
Month to date precipitation 0.91 2.01  
Year to date precipitation 34.78 43.50  
Sea Level Pressure  
Sea Level Pressure 30.05 in    
Wind  
Wind Speed 10 mph (North)    
Max Wind Speed 18 mph    
Max Gust Speed 24 mph    
Visibility 10 miles    
Events      
T = Trace of Precipitation, MM = Missing Value Source: NWS Daily Summary

Daily Weather History Graph

Daily Weather History Graph

Search for Another Location

Airport or City:

Trip Planner

Search our weather history database for the weather conditions in past years. The results will help you decide how hot, cold, wet, or windy it might be!

Date:

Astronomy

Oct. 10, 2012 Rise Set
Actual Time 7:20 AM EDT 6:57 PM EDT
Civil Twilight 6:56 AM EDT 7:21 PM EDT
Nautical Twilight 6:29 AM EDT 7:48 PM EDT
Astronomical Twilight 6:02 AM EDT 8:15 PM EDT
Moon 2:20 AM EDT (10/10) 3:37 PM EDT (10/10)
Length of Visible Light 12h 24m
Length of Day
11h 37m
Waning Crescent, 27% of the Moon is Illuminated
Oct 10
Waning Crescent
Oct 15
New
Oct 21
First Quarter
Oct 29
Full
Nov 6
Last Quarter

Hourly Weather History & Observations

Time (EDT) Temp. Heat Index Dew Point Humidity Pressure Visibility Wind Dir Wind Speed Gust Speed Precip Events Conditions
12:53 AM 77.0 °F - 73.0 °F 88% 30.04 in 10.0 mi NNE 9.2 mph - N/A   Scattered Clouds
1:01 AM 77.0 °F - 73.4 °F 89% 30.04 in 10.0 mi NNE 8.1 mph - N/A   Mostly Cloudy
1:08 AM 77.0 °F - 73.4 °F 89% 30.04 in 10.0 mi North 8.1 mph - N/A   Scattered Clouds
1:16 AM 77.0 °F - 73.4 °F 89% 30.04 in 10.0 mi NNE 6.9 mph - N/A   Mostly Cloudy
1:53 AM 77.0 °F - 73.0 °F 88% 30.04 in 10.0 mi North 6.9 mph - N/A   Mostly Cloudy
2:29 AM 75.2 °F - 73.4 °F 94% 30.03 in 10.0 mi North 6.9 mph - N/A   Scattered Clouds
2:53 AM 75.9 °F - 73.0 °F 91% 30.02 in 10.0 mi North 8.1 mph - N/A   Clear
3:53 AM 75.0 °F - 73.0 °F 94% 30.01 in 10.0 mi North 6.9 mph - N/A   Scattered Clouds
4:04 AM 75.2 °F - 73.4 °F 94% 30.02 in 10.0 mi North 8.1 mph - N/A   Mostly Cloudy
4:43 AM 75.2 °F - 71.6 °F 89% 30.02 in 10.0 mi North 8.1 mph - N/A   Scattered Clouds
4:53 AM 75.0 °F - 72.0 °F 90% 30.02 in 10.0 mi North 9.2 mph - N/A   Partly Cloudy
5:08 AM 75.2 °F - 71.6 °F 89% 30.03 in 10.0 mi North 9.2 mph - N/A   Mostly Cloudy
5:53 AM 75.0 °F - 72.0 °F 90% 30.04 in 10.0 mi NNW 9.2 mph - N/A   Scattered Clouds
6:53 AM 73.9 °F - 72.0 °F 93% 30.05 in 10.0 mi NNW 6.9 mph - N/A   Clear
7:53 AM 72.0 °F - 71.1 °F 97% 30.07 in 7.0 mi NNW 5.8 mph - N/A   Partly Cloudy
8:53 AM 78.1 °F - 73.0 °F 84% 30.08 in 10.0 mi North 10.4 mph - N/A   Clear
9:53 AM 80.1 °F 84.2 °F 73.0 °F 79% 30.09 in 10.0 mi North 15.0 mph - N/A   Partly Cloudy
10:53 AM 82.0 °F 87.4 °F 73.0 °F 74% 30.10 in 10.0 mi NNW 13.8 mph - N/A   Scattered Clouds
11:53 AM 84.0 °F 89.0 °F 71.1 °F 65% 30.10 in 10.0 mi North 12.7 mph - N/A   Clear
12:53 PM 84.9 °F 90.1 °F 71.1 °F 63% 30.09 in 10.0 mi North 12.7 mph 18.4 mph N/A   Scattered Clouds
1:53 PM 84.0 °F 89.0 °F 71.1 °F 65% 30.06 in 10.0 mi NNE 13.8 mph - N/A   Scattered Clouds
2:53 PM 84.0 °F 89.0 °F 71.1 °F 65% 30.05 in 10.0 mi NNE 15.0 mph 23.0 mph N/A   Scattered Clouds
3:53 PM 82.0 °F 84.9 °F 68.0 °F 62% 30.04 in 10.0 mi NNE 13.8 mph - N/A   Scattered Clouds
4:53 PM 81.0 °F 83.3 °F 66.9 °F 62% 30.04 in 10.0 mi NNE 17.3 mph - N/A   Scattered Clouds
5:53 PM 79.0 °F - 64.9 °F 62% 30.04 in 10.0 mi NNE 13.8 mph - N/A   Clear
6:53 PM 77.0 °F - 64.0 °F 64% 30.05 in 10.0 mi NNE 11.5 mph - N/A   Clear
7:53 PM 75.9 °F - 64.0 °F 67% 30.06 in 10.0 mi NNE 9.2 mph - N/A   Clear
8:53 PM 75.0 °F - 64.0 °F 69% 30.08 in 10.0 mi NNE 6.9 mph - N/A   Clear
9:53 PM 73.9 °F - 63.0 °F 68% 30.09 in 10.0 mi NNE 5.8 mph - N/A   Clear
10:53 PM 73.9 °F - 64.0 °F 71% 30.10 in 10.0 mi NNE 6.9 mph - N/A   Clear
11:53 PM 75.0 °F - 64.9 °F 71% 30.11 in 10.0 mi NNE 8.1 mph - N/A   Clear